Location: Moscow
(38.8570°N, 84.2291°W)
Time: 15:35:48
(UTC+00:00)

ARIANE 5 R/B - Pass Details

Date: 15 November 2025
Orbit: 746 x 792 km, 98.8° (Epoch: 06 December)

Event Time Altitude Azimuth Distance (km) Brightness Sun altitude
Rises 22:49:46 0° 153° (SSE) 3,179 5.6 -5.7°
Reaches altitude 10° 22:52:05 10° 148° (SSE) 2,257 4.8 -6.1°
Maximum altitude 22:56:54 54° 72° (ENE) 906 2.6 -7.0°
Drops below altitude 10° 23:01:45 10° 356° (N) 2,274 4.8 -7.9°
Sets 23:04:05 0° 352° (N) 3,205 5.6 -8.3°
